• MPC Preparation (Info)

  • MPEC 2016-C199: 2016 CQ247

    The following Minor Planet Electronic Circular may be linked-to from your own Web pages, but must not otherwise be redistributed electronically.

    A form allowing access to any MPEC is at the bottom of this page.


    Read MPEC 2016-C198 Read MPEC 2016-C200


    M.P.E.C. 2016-C199                               Issued 2016 Feb. 15, 16:39 UT
    
         The Minor Planet Electronic Circulars contain information on unusual
             minor planets and routine data on comets.  They are published
        on behalf of Division F of the International Astronomical Union by the
              Minor Planet Center, Smithsonian Astrophysical Observatory,
                              Cambridge, MA 02138, U.S.A.
    
                 Prepared using the Tamkin Foundation Computer Network
    
                                  MPC@CFA.HARVARD.EDU
                URL https://www.minorplanetcenter.net/    ISSN 1523-6714
    
                                      2016 CQ247
    
    Observations:
         K16CO7Q* C2016 02 12.44809 09 34 29.702-11 20 59.69         21.5 wLEC199F51
         K16CO7Q  C2016 02 12.46036 09 34 27.418-11 20 29.86         21.9 wLEC199F51
         K16CO7Q  C2016 02 12.47265 09 34 25.155-11 20 00.01         21.5 wLEC199F51
         K16CO7Q  C2016 02 12.48493 09 34 22.909-11 19 30.32         21.6 wLEC199F51
         K16CO7Q 2C2016 02 13.30889609 32 00.765-10 46 12.52         21.3 RtEC199568
         K16CO7Q 2C2016 02 13.31016409 32 00.541-10 46 09.49         21.3 RtEC199568
         K16CO7Q 2C2016 02 13.31143209 32 00.314-10 46 06.42         21.4 RtEC199568
         K16CO7Q KC2016 02 13.38520 09 31 46.28 -10 43 12.6          21.4 RoEC199291
         K16CO7Q KC2016 02 13.38830 09 31 45.73 -10 43 05.2          21.5 RoEC199291
         K16CO7Q KC2016 02 13.39140 09 31 45.17 -10 42 57.8          21.1 RoEC199291
         K16CO7Q |C2016 02 14.12268 09 29 42.98 -10 13 24.6          21.5 VuEC199807
         K16CO7Q |C2016 02 14.12814 09 29 42.07 -10 13 11.5          21.6 VuEC199807
         K16CO7Q |C2016 02 14.13374 09 29 41.08 -10 12 58.6          21.6 VuEC199807
         K16CO7Q KC2016 02 15.28742 09 26 33.34 -09 27 48.8          21.0 RoEC199291
         K16CO7Q KC2016 02 15.29037 09 26 32.87 -09 27 41.4          21.1 RoEC199291
         K16CO7Q KC2016 02 15.29331 09 26 32.45 -09 27 35.8                oEC199291
    
    Observer details:
    291 LPL/Spacewatch II.  Observer R. A. Mastaler.  1.8-m f/2.7 reflector + CCD.
    568 Mauna Kea.  Observer C. Wipper.  Measurers D. J. Tholen, R. J. Wainscoat.
        3.6-m Canada-France-Hawaii Telescope.
    807 Cerro Tololo.  Observers T. Linder, R. Holmes.  0.61-m f/6.5 astrograph
        + CCD.
    F51 Pan-STARRS 1, Haleakala.  Observers B. Gibson, T. Goggia, N. Primak,
        A. Schultz, M. Willman.  Measurers K. Chambers, S. Chastel, L. Denneau,
        H. Flewelling, M. Huber, E. Lilly, E. Magnier, R. Wainscoat, C. Waters,
        R. Weryk.  1.8-m Ritchey-Chretien + CCD.
    
    Orbital elements:
    2016 CQ247                                               Earth MOID = 0.1428 AU
    Epoch 2016 Jan. 13.0 TT = JDT 2457400.5                 MPC
    M  42.82294              (2000.0)            P               Q
    n   0.67416896     Peri.  172.41178     +0.97782728     -0.20280982
    a   1.2881217      Node   199.52726     +0.18300094     +0.94867364
    e   0.6007148      Incl.    8.97981     +0.10180605     +0.24266541
    P   1.46           H   21.8           G   0.15           U   8
    Residuals in seconds of arc
    160212 F51  0.1+  0.2+    160213 568  0.0   0.0     160214 807  0.1-  0.3-
    160212 F51  0.1-  0.2+    160213 291  0.0   0.1+    160215 291  0.4-  0.2+
    160212 F51  0.0   0.0     160213 291  0.0   0.0     160215 291  0.2-  0.7+
    160212 F51  0.3+  0.2-    160213 291  0.1-  0.1-    160215 291  0.8+  0.6-
    160213 568  0.0   0.0     160214 807  0.3-  0.0
    160213 568  0.0   0.0     160214 807  0.2+  0.2+
    
    Ephemeris:
    2016 CQ247               a,e,i = 1.29, 0.60, 9                   q = 0.5143
    Date    TT    R. A. (2000) Decl.     Delta      r     Elong.  Phase     V
    2016 01 16    11 25 17.7 -28 30 13   0.3401  1.1349   107.8    55.6    21.8
    ...
    2016 01 31    10 18 48.4 -19 57 03   0.3700  1.2797   136.7    31.9    21.5
    ...
    2016 02 08    09 48 38.7 -14 24 48   0.4045  1.3509   149.6    21.7    21.5
    ...
    2016 02 14    09 30 03.1 -10 18 26   0.4410  1.4017   156.0    16.7    21.6
    2016 02 15    09 27 19.3 -09 38 54   0.4480  1.4099   156.6    16.2    21.7
    2016 02 16    09 24 41.9 -08 59 56   0.4552  1.4181   157.1    15.8    21.7
    ...
    2016 02 22    09 11 09.5 -05 20 35   0.5038  1.4659   157.0    15.3    22.0
    ...
    2016 03 01    08 58 33.6 -01 12 10   0.5813  1.5263   151.2    18.2    22.5
    ...
    2016 03 16    08 48 33.8 +04 20 02   0.7592  1.6295   136.2    25.0    23.4
    
    A. U. Tomatic                (C) Copyright 2016 MPC           M.P.E.C. 2016-C199
    

    Read MPEC 2016-C198 Read MPEC 2016-C200


    MPEC number:

    Enter an MPEC number in one of the following forms:

    • 1997-B01 (the full form)
    • J97B01 (the packed version of the full form)
    • B01 (the abbreviated form)